STARLINK-2555, 48291

Orbit data source: Space-Track

STARLINK-2555, 48291 is a payload satellite owned by SpaceX/Seattle (US) in LEO that was launched on Thu, 29 Apr 2021 UTC via an FALCON 9 launch vehicle from the Air Force Eastern Test Range (AFETR). Payload-class satellites include a variety of spacecraft equipped with specific instruments for various scientific and technological missions. These include communications satellites like Starlink; space stations such as the ISS; scientific satellites like the Hubble; Earth observation satellites from companies like Planet Labs, Umbra, and HawkEye 360; GPS; miniature CubeSats for education and research; and military/defense satellites.

Loading next visibility...
Identifier
48291, 2021-036R
Orbit
LEO
Country
Flag of USUS
Related business
Manufacturer
SpaceX/Seattle
Mission
Operational Commercial Communications
Bus & Motor
STARLINK, Unknown motor
Mass
260 kg wet, ~248 kg dry
Launch date (UTC)
2021-04-29 (4 years ago)
Launch vehicle
FALCON 9
Launch site
Air Force Eastern Test Range (AFETR)
Object type
Payload
Rocket body
Debris
Shape & HBR
Box + 1 Pan, 10.1 m
Radar Cross Section
13.562 m², Large (>1 m²)

Expand to show TLE details & history
Last TLE update: 8 hours ago

TLE from 8 hours ago
0 STARLINK-2555
1 48291U 21036R   25291.18856839 -.00001608  00000-0 -89093-4 0  9993
2 48291  53.0528   1.3373 0001730  94.3702 265.7484 15.06391059246830
Epoch: 2025-10-18T04:31Z
TLE epoch observation values (Epoch: 2025-10-18T04:31:32.308Z)
Latitude
-0.00009°
Longitude
-93.47055°
Altitude
548.207 km
Speed
7.589 km/s
True Right ascension
00h 05m 20s
True Declination
0° 00' 00"
Sunlit
Object was in full shadow at epoch
Visualization orbit readout
Latitude
Unknown
Longitude
Unknown
Altitude
Unknown
Speed
Unknown
Apparent Right ascension
Unknown
Apparent Declination
Unknown
Sunlit
N/A
Visualization observer readout
Local Sidereal Time
07:41:43
Azimuth
Unknown
Elevation
Unknown
Doppler factor
Unknown
Orbital elements
Apogee altitude
548.708 km
Perigee altitude
546.312 km
Semi-major axis
6,925.647 km
Eccentricity
0.00017
Inclination
53.0528°
RAAN
1.3373°
Arg. of periapsis
94.3702°
True anomaly
265.72863°
Mean anomaly
265.7484°
Eccentric anomaly
265.73852°
Mean motion
3.76576 °/min
Orbital period
95.6 mins
BSTAR
-0.000089093
Loading maneuver chart data...
Computing Atmospheric mass density...
Loading historical data...
Loading historical data...
Loading historical data...
Loading historical data...
Loading historical data...
Loading historical data...
Loading historical data...

Documentation

Showing up to 5 results
|